Location: Napier
(39.4830°S, 176.9170°E)
Time: 19:36:05
(UTC+13:00)

H-2A R/B - Pass Details

Date: 24 January 2019
Orbit: 258 x 32961 km, 27.9° (Epoch: 20 February)

Event Time Altitude Azimuth Distance (km) Brightness Sun altitude
Rises 22:05:56 0° 316° (NW) 2,405 4.6 -15.2°
Reaches altitude 10° 22:07:26 10° 332° (NNW) 1,916 3.9 -15.5°
Maximum altitude 22:10:58 27° 33° (NNE) 1,989 3.6 -16.0°
Drops below altitude 10° 22:23:01 10° 83° (E) 6,903 6.4 -17.6°
Sets 22:38:36 0° 89° (E) 12,553 7.8 -19.7°
